Managua, Nicaragua

6:16 AM CST on September 21, 2017 (GMT -0600)
Augusto Cesar Sandino

Weather History for MNMG - April, 2013

Change the Weather History Date:

Friday, April 12, 2013

  Actual Average Record
Temperature  
Mean Temperature 86 °F -  
Max Temperature 96 °F 92 °F 96 °F (1998)
Min Temperature 77 °F 73 °F 71 °F (1997)
Cooling Degree Days 22    
Growing Degree Days 36 (Base 50)    
Moisture  
Dew Point 71 °F    
Average Humidity 61    
Maximum Humidity 83    
Minimum Humidity 39    
Precipitation  
Precipitation 0.00 in - - ()
Sea Level Pressure  
Sea Level Pressure 29.76 in    
Wind  
Wind Speed 7 mph ()    
Max Wind Speed 18 mph    
Max Gust Speed -    
Visibility 5.6 miles    
Events      
Averages and records for this station are not official NWS values.
T = Trace of Precipitation, MM = Missing Value Source: Averaged Metar Reports

Daily Weather History Graph

Daily Weather History Graph

Search for Another Location

Airport or City:

Trip Planner

Search our weather history database for the weather conditions in past years. The results will help you decide how hot, cold, wet, or windy it might be!

Date:

Astronomy

Apr. 12, 2013 Rise Set
Actual Time 5:34 AM CST 5:56 PM CST
Civil Twilight 5:12 AM CST 6:18 PM CST
Nautical Twilight 4:47 AM CST 6:43 PM CST
Astronomical Twilight 4:22 AM CST 7:08 PM CST
Moon 7:05 AM CST (4/12) 8:01 PM CST (4/12)
Length of Visible Light 13h 05m
Length of Day
12h 22m
Waxing Crescent, 5% of the Moon is Illuminated
Apr 12
Waxing Crescent
Apr 18
First Quarter
Apr 25
Full
May 2
Last Quarter
May 9
New

Hourly Weather History & Observations

Time (CST) Temp. Heat Index Dew Point Humidity Pressure Visibility Wind Dir Wind Speed Gust Speed Precip Events Conditions
12:00 AM 82.4 °F 88.2 °F 73.4 °F 74% 29.80 in 5.6 mi East 4.6 mph - N/A   Scattered Clouds
1:00 AM 82.4 °F 88.2 °F 73.4 °F 74% 29.77 in 5.6 mi SE 6.9 mph - N/A   Scattered Clouds
2:00 AM 80.6 °F 85.4 °F 73.4 °F 79% 29.77 in 5.6 mi ESE 6.9 mph - N/A   Scattered Clouds
4:00 AM 78.8 °F - 73.4 °F 83% 29.74 in 5.6 mi Calm Calm - N/A   Scattered Clouds
4:45 AM 78.8 °F - 73.4 °F 83% 29.74 in 5.6 mi Calm Calm - N/A   Scattered Clouds
5:00 AM 77.0 °F - 71.6 °F 83% 29.77 in 5.6 mi Calm Calm - N/A   Scattered Clouds
6:00 AM 77.0 °F - 69.8 °F 78% 29.77 in 5.6 mi SE 4.6 mph - N/A   Scattered Clouds
7:00 AM 80.6 °F 83.9 °F 69.8 °F 70% 29.80 in 5.6 mi East 4.6 mph - N/A   Scattered Clouds
8:00 AM 84.2 °F 88.4 °F 69.8 °F 62% 29.83 in 5.6 mi SE 4.6 mph - N/A   Scattered Clouds
9:00 AM 87.8 °F 92.6 °F 69.8 °F 55% 29.83 in 5.6 mi East 11.5 mph - N/A   Mostly Cloudy
10:00 AM 89.6 °F 96.2 °F 71.6 °F 55% 29.83 in 5.6 mi ESE 16.1 mph - N/A   Mostly Cloudy
11:00 AM 93.2 °F 98.8 °F 69.8 °F 46% 29.80 in 5.6 mi SE 11.5 mph - N/A   Mostly Cloudy
12:00 PM 93.2 °F 98.8 °F 69.8 °F 46% 29.77 in 5.6 mi East 11.5 mph - N/A   Mostly Cloudy
1:00 PM 95.0 °F 101.3 °F 69.8 °F 44% 29.74 in 5.6 mi ESE 13.8 mph - N/A   Mostly Cloudy
2:00 PM 96.8 °F 103.1 °F 69.8 °F 41% 29.71 in 5.6 mi ESE 13.8 mph - N/A   Mostly Cloudy
3:00 PM 96.8 °F 101.8 °F 68.0 °F 39% 29.68 in 5.6 mi ESE 16.1 mph - N/A   Scattered Clouds
4:00 PM 96.8 °F 101.8 °F 68.0 °F 39% 29.65 in 5.6 mi ESE 16.1 mph - N/A   Partly Cloudy
5:00 PM 95.0 °F 99.5 °F 68.0 °F 41% 29.65 in 5.6 mi ESE 13.8 mph - N/A   Partly Cloudy
6:00 PM 91.4 °F 95.4 °F 68.0 °F 46% 29.68 in 5.6 mi ESE 11.5 mph - N/A   Scattered Clouds
7:00 PM 87.8 °F 92.6 °F 69.8 °F 55% 29.71 in 5.6 mi ESE 9.2 mph - N/A   Scattered Clouds
8:00 PM 87.8 °F 93.8 °F 71.6 °F 58% 29.74 in 5.6 mi SE 11.5 mph - N/A   Scattered Clouds
9:00 PM 86.0 °F 93.4 °F 73.4 °F 66% 29.77 in 5.6 mi SE 16.1 mph - N/A   Scattered Clouds
10:00 PM 86.0 °F 93.4 °F 73.4 °F 66% 29.77 in 5.6 mi ESE 18.4 mph - N/A   Scattered Clouds
11:00 PM 84.2 °F 90.9 °F 73.4 °F 70% 29.80 in 5.6 mi ESE 13.8 mph - N/A   Scattered Clouds